Voltar ao catálogo

INTELSAT 36

AtivoComunicaçõesGEO
NORAD 41747·PAYLOAD· XX

Lançado Aug 24, 2016 de Guiana Space Centre

Loading…

TLE

AtualizadoSource: CelesTrak SupGP

Época: Sep 14, 2026, 00:00 UTC

1 41747C 16053A   26257.00000000  .00000066  00000+0  00000+0 0  2577
2 41747   0.0001 112.0351 0001846 246.5479  62.9160  1.00271645    16

Acompanhe INTELSAT 36 em tempo real com AllMySat

Download on the App Store